Plattsburgh, NY

4:17 AM EST on December 16, 2017 (GMT -0500)
Plattsburgh International

Weather History for KPBG - August, 2014

Change the Weather History Date:

Friday, August 15, 2014

  Actual Average Record
Temperature  
Mean Temperature 61 °F 68 °F  
Max Temperature 68 °F 79 °F 96 °F (1959)
Min Temperature 54 °F 57 °F 47 °F (1950)
Degree Days  
Heating Degree Days 4 1  
Month to date heating degree days 9 3  
Since 1 June heating degree days 78 99  
Since 1 July heating degree days 24 14  
Cooling Degree Days 0 4  
Month to date cooling degree days 37 60  
Year to date cooling degree days 230 273  
Since 1 June cooling degree days 217 265  
Growing Degree Days 10 (Base 50)    
Moisture  
Dew Point 52 °F    
Average Humidity 79    
Maximum Humidity 100    
Minimum Humidity 58    
Precipitation  
Precipitation 0.03 in - 1.28 in (1981)
Month to date precipitation 2.82  
Year to date precipitation 21.43  
Sea Level Pressure  
Sea Level Pressure 29.85 in    
Wind  
Wind Speed 2 mph (SW)    
Max Wind Speed 9 mph    
Max Gust Speed -    
Visibility 10 miles    
Events Rain    
T = Trace of Precipitation, MM = Missing Value Source: NWS Daily Summary

Daily Weather History Graph

Daily Weather History Graph

Search for Another Location

Airport or City:

Trip Planner

Search our weather history database for the weather conditions in past years. The results will help you decide how hot, cold, wet, or windy it might be!

Date:

Astronomy

Aug. 15, 2014 Rise Set
Actual Time 5:56 AM EDT 7:59 PM EDT
Civil Twilight 5:24 AM EDT 8:31 PM EDT
Nautical Twilight 4:45 AM EDT 9:10 PM EDT
Astronomical Twilight 4:02 AM EDT 9:52 PM EDT
Moon 10:43 PM EDT (8/15) 11:52 AM EDT (8/15)
Length of Visible Light 15h 06m
Length of Day
14h 03m
Waning Gibbous, 69% of the Moon is Illuminated
Aug 15
Waning Gibbous
Aug 17
Last Quarter
Aug 25
New
Sep 2
First Quarter
Sep 8
Full

Hourly Weather History & Observations

Time (EDT) Temp. Dew Point Humidity Pressure Visibility Wind Dir Wind Speed Gust Speed Precip Events Conditions
12:53 AM 55.9 °F 48.0 °F 75% 29.84 in 10.0 mi Calm Calm - 0.00 in   Overcast
1:53 AM 54.0 °F 52.0 °F 93% 29.84 in 10.0 mi Calm Calm - 0.02 in   Overcast
2:53 AM 54.0 °F 53.1 °F 97% 29.83 in 10.0 mi Calm Calm - N/A   Overcast
3:53 AM 54.0 °F 52.0 °F 93% 29.83 in 10.0 mi Calm Calm - 0.01 in Rain Light Rain
4:53 AM 54.0 °F 53.1 °F 97% 29.83 in 10.0 mi Calm Calm - 0.00 in   Overcast
5:53 AM 54.0 °F 52.0 °F 93% 29.83 in 10.0 mi Calm Calm - N/A   Overcast
6:53 AM 55.0 °F 54.0 °F 96% 29.84 in 10.0 mi Calm Calm - N/A   Overcast
7:53 AM 55.0 °F 54.0 °F 96% 29.84 in 10.0 mi Calm Calm - N/A   Overcast
8:53 AM 55.9 °F 54.0 °F 93% 29.85 in 10.0 mi Calm Calm - 0.00 in   Overcast
9:53 AM 57.9 °F 54.0 °F 87% 29.85 in 10.0 mi SSW 3.5 mph - N/A   Overcast
10:53 AM 61.0 °F 53.1 °F 75% 29.85 in 10.0 mi Variable 3.5 mph - N/A   Overcast
11:53 AM 61.0 °F 55.0 °F 81% 29.85 in 10.0 mi SW 3.5 mph - 0.00 in Rain Light Rain
12:53 PM 62.1 °F 54.0 °F 75% 29.84 in 10.0 mi SSE 6.9 mph - 0.00 in   Overcast
1:53 PM 64.0 °F 51.1 °F 63% 29.84 in 10.0 mi Calm Calm - N/A   Mostly Cloudy
2:53 PM 64.0 °F 50.0 °F 60% 29.84 in 10.0 mi West 4.6 mph - N/A   Overcast
3:53 PM 66.0 °F 51.1 °F 59% 29.84 in 10.0 mi WSW 9.2 mph - N/A   Overcast
4:53 PM 64.9 °F 50.0 °F 58% 29.85 in 10.0 mi WNW 5.8 mph - N/A   Overcast
5:53 PM 64.0 °F 53.1 °F 67% 29.85 in 10.0 mi Calm Calm - N/A   Overcast
6:53 PM 62.1 °F 54.0 °F 75% 29.85 in 10.0 mi Calm Calm - N/A   Overcast
7:53 PM 61.0 °F 53.1 °F 75% 29.86 in 10.0 mi Calm Calm - N/A   Overcast
8:53 PM 61.0 °F 52.0 °F 72% 29.87 in 10.0 mi Variable 4.6 mph - N/A   Overcast
9:53 PM 60.1 °F 53.1 °F 78% 29.88 in 10.0 mi Calm Calm - N/A   Overcast
10:53 PM 59.0 °F 52.0 °F 78% 29.87 in 10.0 mi SSW 4.6 mph - 0.00 in   Overcast
11:53 PM 59.0 °F 52.0 °F 78% 29.87 in 10.0 mi South 3.5 mph - N/A   Overcast